Savannah, GA

1:43 PM EDT on October 17, 2017 (GMT -0400)
Savannah International

Weather History for KSAV - July, 2012

Change the Weather History Date:

Thursday, July 12, 2012

  Actual Average Record
Temperature  
Mean Temperature 82 °F 83 °F  
Max Temperature 90 °F 93 °F 105 °F (1879)
Min Temperature 73 °F 73 °F 63 °F (1963)
Degree Days  
Heating Degree Days 0 0  
Month to date heating degree days 0 0  
Since 1 June heating degree days 0 0  
Since 1 July heating degree days 0 0  
Cooling Degree Days 17 18  
Month to date cooling degree days 233 208  
Year to date cooling degree days 1275 1057  
Since 1 June cooling degree days 611 654  
Growing Degree Days 32 (Base 50)    
Moisture  
Dew Point 72 °F    
Average Humidity 76    
Maximum Humidity 94    
Minimum Humidity 57    
Precipitation  
Precipitation 0.03 in 0.17 in 2.72 in (1902)
Month to date precipitation 1.21 2.04  
Year to date precipitation 21.31 24.25  
Sea Level Pressure  
Sea Level Pressure 30.06 in    
Wind  
Wind Speed 6 mph (East)    
Max Wind Speed 17 mph    
Max Gust Speed 23 mph    
Visibility 9 miles    
Events Fog , Rain , Thunderstorm    
T = Trace of Precipitation, MM = Missing Value Source: NWS Daily Summary

Daily Weather History Graph

Daily Weather History Graph

Search for Another Location

Airport or City:

Trip Planner

Search our weather history database for the weather conditions in past years. The results will help you decide how hot, cold, wet, or windy it might be!

Date:

Astronomy

Jul. 12, 2012 Rise Set
Actual Time 6:27 AM EDT 8:33 PM EDT
Civil Twilight 5:59 AM EDT 9:00 PM EDT
Nautical Twilight 5:26 AM EDT 9:34 PM EDT
Astronomical Twilight 4:49 AM EDT 10:10 PM EDT
Moon 1:23 AM EDT (7/12) 3:09 PM EDT (7/12)
Length of Visible Light 15h 01m
Length of Day
14h 05m
Waning Crescent, 35% of the Moon is Illuminated
Jul 12
Waning Crescent
Jul 19
New
Jul 26
First Quarter
Aug 1
Full
Aug 9
Last Quarter

Hourly Weather History & Observations

Time (EDT) Temp. Heat Index Dew Point Humidity Pressure Visibility Wind Dir Wind Speed Gust Speed Precip Events Conditions
12:53 AM 75.0 °F - 72.0 °F 90% 30.08 in 10.0 mi North 3.5 mph - N/A   Mostly Cloudy
1:53 AM 75.0 °F - 73.0 °F 94% 30.07 in 7.0 mi North 3.5 mph - N/A Fog Shallow Fog
2:53 AM 73.9 °F - 72.0 °F 93% 30.06 in 8.0 mi NNE 3.5 mph - N/A   Mostly Cloudy
3:53 AM 73.9 °F - 71.1 °F 91% 30.06 in 10.0 mi NNE 3.5 mph - N/A   Mostly Cloudy
4:53 AM 73.0 °F - 71.1 °F 93% 30.06 in 10.0 mi NNE 3.5 mph - N/A   Scattered Clouds
5:15 AM 73.4 °F - 71.6 °F 94% 30.06 in 10.0 mi NNE 5.8 mph - N/A   Scattered Clouds
5:53 AM 73.0 °F - 71.1 °F 93% 30.06 in 7.0 mi Calm Calm - N/A   Scattered Clouds
6:53 AM 73.0 °F - 72.0 °F 96% 30.06 in 3.0 mi Calm Calm - N/A   Mostly Cloudy
7:53 AM 77.0 °F - 73.9 °F 90% 30.06 in 8.0 mi ENE 3.5 mph - N/A   Mostly Cloudy
8:53 AM 81.0 °F 86.2 °F 73.9 °F 79% 30.06 in 10.0 mi Calm Calm - N/A   Mostly Cloudy
9:53 AM 84.0 °F 90.2 °F 73.0 °F 69% 30.06 in 10.0 mi Calm Calm - N/A   Mostly Cloudy
10:53 AM 86.0 °F 92.2 °F 72.0 °F 63% 30.07 in 10.0 mi SE 5.8 mph - N/A   Mostly Cloudy
11:53 AM 86.0 °F 91.5 °F 71.1 °F 61% 30.07 in 10.0 mi ESE 9.2 mph - N/A   Mostly Cloudy
12:53 PM 82.0 °F 87.9 °F 73.9 °F 76% 30.09 in 8.0 mi East 8.1 mph - 0.00 in Rain Light Rain
1:53 PM 84.0 °F 90.2 °F 73.0 °F 69% 30.07 in 10.0 mi East 16.1 mph 23.0 mph 0.02 in   Mostly Cloudy
2:16 PM 84.2 °F 90.9 °F 73.4 °F 70% 30.07 in 10.0 mi East 16.1 mph - N/A Thunderstorm Thunderstorm
2:44 PM 86.0 °F 89.4 °F 68.0 °F 55% 30.05 in 10.0 mi SE 11.5 mph - N/A   Mostly Cloudy
2:53 PM 86.0 °F 90.7 °F 70.0 °F 59% 30.05 in 10.0 mi SE 11.5 mph - N/A   Mostly Cloudy
3:53 PM 86.0 °F 90.1 °F 69.1 °F 57% 30.04 in 10.0 mi SE 12.7 mph - N/A   Mostly Cloudy
4:53 PM 87.1 °F 92.8 °F 71.1 °F 59% 30.04 in 10.0 mi SE 12.7 mph - N/A   Mostly Cloudy
5:53 PM 86.0 °F 92.2 °F 72.0 °F 63% 30.04 in 10.0 mi East 11.5 mph - N/A   Mostly Cloudy
6:53 PM 84.0 °F 89.6 °F 72.0 °F 67% 30.04 in 10.0 mi East 9.2 mph - N/A   Mostly Cloudy
7:53 PM 82.9 °F 88.0 °F 72.0 °F 69% 30.05 in 10.0 mi East 8.1 mph - N/A   Mostly Cloudy
8:53 PM 82.0 °F 87.4 °F 73.0 °F 74% 30.06 in 10.0 mi East 6.9 mph - N/A   Mostly Cloudy
9:53 PM 81.0 °F 86.2 °F 73.9 °F 79% 30.08 in 10.0 mi East 5.8 mph - N/A   Mostly Cloudy
10:53 PM 80.1 °F 84.5 °F 73.9 °F 81% 30.09 in 10.0 mi East 5.8 mph - N/A   Scattered Clouds
11:53 PM 80.1 °F 84.5 °F 73.9 °F 81% 30.09 in 7.0 mi ENE 5.8 mph - 0.00 in Rain Rain